Starlink 32875

operational
NORAD ID: 62951 Int'l Des: 2025-029 Owner: SPXS Country: US Constellation: starlink
LEOCIRCULAR

About Starlink 32875

Description loading...

Live Position

Loading 3D Globe...

Upcoming Passes

Altitude History

Altitude vs Time

uPlot chart will show altitude changes over time

Two-Line Element Set

1 62951U 25029D 25347.50416088 .00030475 00000-0 10353-2 0 9997
2 62951 53.1599 270.5530 0002193 82.4087 277.7163 15.30246249 48161
Epoch: Dec 13, 2025 • Age: 20 hours

Current Status

Altitude 493.5 km
Velocity 7.62 km/s
Sub-Earth Point -49.80°S, 0.86°W
Launch Date Feb 11, 2025
Age 0.8 years
Type internet

Technical Details

Classification Payload
Mass 730.00 kg
Dry Mass 700.00 kg
Total Mass 730.00 kg
Length 0.30 m
Diameter 4.10 m
Span 29.00 m
Shape Box + pan
Manufacturer SPXS
Bus Type Starlink V2M
Phase Status In Orbit
Owner/State SPXS/US

Large Constellations

Loading constellations...